Weather in Ostrog

Ukraine / Rovno District     50˚19′39″N   26˚30′49″E
temp.,
°C
wind,
m/s
gust,
m/s
humid.,
%
clouds,
%
prec.,
mm/h
press.,
hPa
HPBL,
m
1 december, tue
tue123:00−3˚w118311 0.0 102922
02:00−3˚s118320 0.0 102821
05:00−3˚se12848 0.0 102824
08:00−4˚se22894 0.0 102838
11:00−1˚se24720 0.0 1029396
14:00ese34660 0.0 1028543
17:00−3˚e23810 0.0 102859
20:00−3˚ene36820 0.0 1029176
2 december, wed
wed223:00−4˚ene24820 0.0 1028141
02:00−4˚ne248913 0.0 1029141
05:00−2˚ne249392 0.1 1027186
08:00−2˚ene359496 0.2 1028265
11:00−1˚ene248895 0.1 1027289
14:00e238396 0.1 1026434
17:00−1˚e2390100 0.0 1025172
20:00−1˚ese3591100 0.1 1025292
3 december, thu
thu323:00se3687100 0.0 1024324
02:00−1˚se3590100 0.1 1024273
05:00−2˚se378975 0.0 1023227
08:00−2˚se489449 0.0 1022341
11:00sse587697 0.0 1022644
14:00+1˚sse697488 0.0 1020676
17:00sse6107998 0.0 1020636
20:00se7107999 0.0 1019648
4 december, fri
fri423:00+1˚sse6128194 0.0 1018615
02:00+3˚sse6149094 0.0 1016655
05:00+4˚se61591100 0.0 1014665
08:00+5˚se81787100 0.0 1014765
11:00+5˚se91783100 0.0 1013997
14:00+6˚se101880100 0.0 1012906
17:00+7˚se9178298 0.0 1012866
20:00+7˚sse8168299 0.0 1013790
5 december, sat
sat523:00+7˚sse71584100 0.0 1014749
02:00+7˚se81784100 0.0 1013710
05:00+6˚sse81488100 0.0 1013763
08:00+7˚se71488100 0.1 1014620
11:00+8˚se71387100 0.0 1014618
14:00+8˚se71388100 0.1 1014632
17:00+9˚se71486100 0.1 1014646
20:00+8˚se81684100 0.1 1014718